Thu, 23 Sep 2021 00:35:29 UTC

Information for RPM brotli-1.0.9-3.fc31.aarch64.rpm

ID23452081
Namebrotli
Version1.0.9
Release3.fc31
Epoch
Archaarch64
SummaryLossless compression algorithm
DescriptionBrotli is a generic-purpose lossless compression algorithm that compresses data using a combination of a modern variant of the LZ77 algorithm, Huffman coding and 2nd order context modeling, with a compression ratio comparable to the best currently available general-purpose compression methods. It is similar in speed with deflate but offers more dense compression.
Build Time2020-10-09 11:55:49 GMT
Size335,563
f0568742c26fc9c095890a11d9e3702f
LicenseMIT
Buildrootf31-build-23246814-2220081
Provides
brotli = 1.0.9-3.fc31
brotli(aarch-64) = 1.0.9-3.fc31
Obsoletes No Obsoletes
Conflicts No Conflicts
Requires
ld-linux-aarch64.so.1()(64bit)
ld-linux-aarch64.so.1(GLIBC_2.17)(64bit)
libbrotli(aarch-64) = 1.0.9-3.fc31
libc.so.6()(64bit)
libc.so.6(GLIBC_2.17)(64bit)
libm.so.6()(64bit)
libm.so.6(GLIBC_2.29)(64bit)
rpmlib(CompressedFileNames) <= 3.0.4-1
rpmlib(FileDigests) <= 4.6.0-1
rpmlib(PayloadFilesHavePrefix) <= 4.0-1
rpmlib(PayloadIsZstd) <= 5.4.18-1
rtld(GNU_HASH)
Recommends No Recommends
Suggests No Suggests
Supplements No Supplements
Enhances No Enhances
Files
1 through 4 of 4
Name ascending sort Size
/usr/bin/brotli727,840
/usr/lib/.build-id0
/usr/lib/.build-id/570
/usr/lib/.build-id/57/10e1e2e2e6f3301696eca8dd0bca56d08799be26
Component of
Page:
1 through 50 of 601 >>>
Buildroot descending sort Created State
f31-build-24240094-2468284 2020-11-24 16:05:28 expired
f31-build-24238111-2468284 2020-11-24 13:59:46 expired
f31-build-24237467-2468284 2020-11-24 13:31:43 expired
f31-build-24237303-2468284 2020-11-24 13:15:12 expired
f31-build-24236838-2468284 2020-11-24 12:49:59 expired
f31-build-24235747-2466158 2020-11-24 10:09:49 expired
f31-build-24235649-2466158 2020-11-24 10:02:19 expired
f31-build-24234317-2466158 2020-11-24 08:27:08 expired
f31-build-24232435-2466158 2020-11-24 06:21:21 expired
f31-build-24231897-2466158 2020-11-24 05:50:22 expired
f31-build-24231438-2466158 2020-11-24 05:19:31 expired
f31-build-24230951-2466158 2020-11-24 04:24:20 expired
f31-build-24230647-2466158 2020-11-24 03:55:04 expired
f31-build-24230477-2466158 2020-11-24 03:46:43 expired
f31-build-24230402-2466158 2020-11-24 03:42:43 expired
f31-build-24230211-2466158 2020-11-24 03:32:12 expired
f31-build-24229057-2466158 2020-11-24 02:02:32 expired
f31-build-24228745-2466158 2020-11-24 01:46:49 expired
f31-build-24228006-2466158 2020-11-24 01:11:39 expired
f31-build-24225738-2460244 2020-11-23 22:29:51 expired
f31-build-24219976-2460244 2020-11-23 11:28:23 expired
f31-build-24216097-2460244 2020-11-23 05:53:58 expired
f31-build-24214872-2460244 2020-11-23 04:56:54 expired
f31-build-24209970-2457616 2020-11-23 00:13:11 expired
f31-build-24204951-2457616 2020-11-22 20:26:26 expired
f31-build-24204122-2457616 2020-11-22 19:34:22 expired
f31-build-24200704-2457616 2020-11-22 15:35:14 expired
f31-build-24188979-2456940 2020-11-22 04:06:55 expired
f31-build-24188296-2456940 2020-11-22 03:18:03 expired
f31-build-24168602-2455781 2020-11-21 10:58:35 expired
f31-build-24155006-2448964 2020-11-21 00:07:13 expired
f31-build-24144139-2448964 2020-11-20 10:18:16 expired
f31-build-24140376-2448964 2020-11-20 05:19:53 expired
f31-build-24139754-2448964 2020-11-20 04:40:46 expired
f31-build-24139557-2448964 2020-11-20 04:27:53 expired
f31-build-24138761-2448964 2020-11-20 03:56:22 expired
f31-build-24138390-2448964 2020-11-20 03:26:00 expired
f31-build-24138362-2448964 2020-11-20 03:25:21 expired
f31-build-24137801-2448964 2020-11-20 02:54:26 expired
f31-build-24136999-2448964 2020-11-20 02:07:08 expired
f31-build-24135809-2442483 2020-11-19 23:31:44 expired
f31-build-24135169-2442483 2020-11-19 22:09:18 expired
f31-build-24135157-2442483 2020-11-19 22:08:58 expired
f31-build-24134762-2442483 2020-11-19 21:42:14 expired
f31-build-24134741-2442483 2020-11-19 21:41:28 expired
f31-build-24134666-2442483 2020-11-19 21:31:09 expired
f31-build-24134361-2442483 2020-11-19 21:08:46 expired
f31-build-24134082-2442483 2020-11-19 20:36:15 expired
f31-build-24133746-2442483 2020-11-19 20:02:09 expired
f31-build-24133729-2442483 2020-11-19 20:01:46 expired